星链-4351 (STARLINK-4351 )

导读 | 星芒AI

STARLINK-4351 是 SpaceX 星链计划中的一颗低轨卫星,属于该计划的第四批发射任务。它运行在约 550 公里的高度,旨在为全球提供高速互联网服务。该卫星采用先进的推进和通信技术,具备自动避障功能,以减少与其他卫星或太空碎片的碰撞风险。作为星链网络的一部分,STARLINK-4351 有助于提升偏远地区的网络覆盖和连接质量。

基本信息
目录编号:
53193
目录名称:
STARLINK-4351
国际标识:
2022-084E
轨道中心:
EARTH
卫星名称:
星链-4351
卫星全名:
星链-4351 (STARLINK-4351 )
卫星状态:
在轨 (已飞行1248 天)
发射日期:
2022-07-22 UTC
国别 :
美国 (US)
星等 :
--
轨道信息
数据来源 国际轨道数据 AOE轨道数据
星历时间 2025-12-21T06:18:24+0800
8小时前
查看轨道信息
2025-12-16T11:00:00+0800
5天前
查看轨道信息
半长轴 6941.145km 6941.129km
偏心率 0.0000791 0.0001262
轨道倾角 97.604° 97.606°
近地点辐角 98.521° 82.561°
升交点赤经 53.089° 48.386°
平近点角 261.610° 247.998°
近地点 562.458km 562.118km
远地点 563.558km 563.87km
周期 95.919分钟 95.919分钟
每日圈数 15.012606 15.012659
详细信息
固有亮度:
5
最大亮度:
2.5
卫星平台:
Starlink v1.5
覆盖范围:
全球
运营商:
太空探索技术公司
运营商所在国:
美国
制造商(研发单位):
太空探索技术公司
制造商所在国:
美国
使用方式:
暂无
卫星简介
星链(Starlink)计划是由太空探索技术公司(SpaceX)提出的一个巨型低轨卫星互联网星座项目,计划在2019年至2024年间在太空搭建由约1.2万颗卫星组成的“星链”网络,其中1584颗将部署在地球上空550千米处的近地轨道,并从2020年开始工作。该卫星仍在工作。
2D轨道图
3D轨道图
轨道高度分析图
轨道倾角分析图
轨道综合分析图
查看轨道综合分析图